TimeMST,TemperatureF,Dew PointF,Humidity,Sea Level PressureIn,VisibilityMPH,Wind Direction,Wind SpeedMPH,Gust SpeedMPH,PrecipitationIn,Events,Conditions,WindDirDegrees,DateUTC
12:53 AM,28.9,25.0,85,30.10,8.0,NNE,4.6,-,0.00,,Overcast,30,2013-01-25 07:53:00
1:53 AM,28.9,23.0,78,30.10,10.0,North,8.1,-,0.00,,Overcast,350,2013-01-25 08:53:00
2:53 AM,28.9,23.0,78,30.11,10.0,North,6.9,-,N/A,,Overcast,350,2013-01-25 09:53:00
3:53 AM,28.0,21.9,78,30.11,10.0,North,10.4,-,N/A,,Mostly Cloudy,10,2013-01-25 10:53:00
4:06 AM,28.4,21.2,74,30.26,10.0,North,12.7,-,N/A,,Partly Cloudy,10,2013-01-25 11:06:00
4:53 AM,28.0,21.9,78,30.09,10.0,North,13.8,-,N/A,,Scattered Clouds,10,2013-01-25 11:53:00
5:53 AM,27.0,21.0,78,30.09,10.0,NNE,5.8,-,N/A,,Mostly Cloudy,20,2013-01-25 12:53:00
6:53 AM,27.0,23.0,85,30.13,10.0,NNE,10.4,-,N/A,,Mostly Cloudy,30,2013-01-25 13:53:00
7:14 AM,28.4,21.2,74,30.27,10.0,NNE,13.8,-,N/A,,Mostly Cloudy,20,2013-01-25 14:14:00
7:53 AM,30.0,23.0,75,30.12,10.0,NNE,9.2,-,N/A,,Overcast,20,2013-01-25 14:53:00
8:06 AM,28.4,23.0,80,30.28,10.0,NNE,10.4,-,N/A,,Overcast,20,2013-01-25 15:06:00
8:53 AM,30.9,24.1,76,30.09,10.0,NNE,8.1,-,N/A,,Overcast,30,2013-01-25 15:53:00
9:00 AM,30.2,24.8,80,30.27,10.0,NNE,8.1,-,N/A,,Overcast,30,2013-01-25 16:00:00
9:53 AM,33.1,25.0,72,30.10,10.0,North,10.4,-,N/A,,Overcast,350,2013-01-25 16:53:00
10:53 AM,34.0,24.1,67,30.11,10.0,North,10.4,-,N/A,,Overcast,10,2013-01-25 17:53:00
11:53 AM,37.9,24.1,57,30.04,10.0,NNW,12.7,18.4,N/A,,Partly Cloudy,340,2013-01-25 18:53:00
12:53 PM,39.0,24.1,55,30.00,10.0,NNW,17.3,21.9,N/A,,Mostly Cloudy,330,2013-01-25 19:53:00
1:53 PM,36.0,25.0,64,29.99,10.0,NW,12.7,21.9,N/A,,Mostly Cloudy,310,2013-01-25 20:53:00
2:53 PM,36.0,25.0,64,29.99,10.0,NNW,11.5,23.0,N/A,,Overcast,340,2013-01-25 21:53:00
3:53 PM,35.1,25.0,67,30.01,10.0,NNW,13.8,18.4,N/A,,Overcast,340,2013-01-25 22:53:00
4:53 PM,34.0,25.0,70,30.02,10.0,North,8.1,-,N/A,,Overcast,360,2013-01-25 23:53:00
5:53 PM,32.0,25.0,75,30.04,10.0,North,8.1,-,N/A,,Overcast,350,2013-01-26 00:53:00
6:53 PM,32.0,26.1,79,30.04,10.0,North,3.5,-,N/A,,Overcast,360,2013-01-26 01:53:00
7:53 PM,30.0,25.0,82,30.03,10.0,North,3.5,-,N/A,,Mostly Cloudy,360,2013-01-26 02:53:00
8:53 PM,30.0,25.0,82,30.02,10.0,North,6.9,-,N/A,,Overcast,360,2013-01-26 03:53:00
9:53 PM,30.9,24.1,76,30.01,10.0,NNE,3.5,-,N/A,,Overcast,20,2013-01-26 04:53:00
10:53 PM,28.9,23.0,78,30.00,10.0,NNE,5.8,-,N/A,,Mostly Cloudy,20,2013-01-26 05:53:00
11:53 PM,28.0,23.0,81,29.98,10.0,North,4.6,-,N/A,,Partly Cloudy,10,2013-01-26 06:53:00